Barnwell, SC

2:39 AM EDT on September 15, 2019 (GMT -0400)
Barnwell County

Weather History for KBNL - August, 2019

Change the Weather History Date:

Wednesday, August 21, 2019

  Actual Average (KOGB) Record (KOGB)
Temperature  
Mean Temperature 84 °F 80 °F  
Max Temperature 93 °F 89 °F 102 °F (1983)
Min Temperature 75 °F 70 °F 59 °F (1998)
Degree Days  
Heating Degree Days 0 0  
Month to date heating degree days 0  
Since 1 June heating degree days 1  
Since 1 July heating degree days 0  
Cooling Degree Days 19 15  
Month to date cooling degree days 333  
Year to date cooling degree days 1555  
Since 1 June cooling degree days 1252  
Growing Degree Days 34 (Base 50)    
Moisture  
Dew Point 72 °F    
Average Humidity 72    
Maximum Humidity 94    
Minimum Humidity 46    
Precipitation  
Precipitation 0.00 in 0.15 in 1.25 in (1963)
Month to date precipitation 3.69  
Year to date precipitation 31.72  
Sea Level Pressure  
Sea Level Pressure 30.08 in    
Wind  
Wind Speed 3 mph (SW)    
Max Wind Speed 12 mph    
Max Gust Speed 15 mph    
Visibility 10 miles    
Events Thunderstorm    
T = Trace of Precipitation, MM = Missing Value Source: NWS Daily Summary

Daily Weather History Graph

Daily Weather History Graph

Search for Another Location

Airport or City:

Astronomy

Aug. 21, 2019 Rise Set
Actual Time 6:52 AM EDT 8:04 PM EDT
Civil Twilight 6:26 AM EDT 8:30 PM EDT
Nautical Twilight 5:55 AM EDT 9:01 PM EDT
Astronomical Twilight 5:23 AM EDT 9:32 PM EDT
Moon 11:39 PM EDT (8/21) 12:10 PM EDT (8/21)
Length of Visible Light 14h 04m
Length of Day
13h 12m
Waning Gibbous, 69% of the Moon is Illuminated
Aug 21
Waning Gibbous
Aug 23
Last Quarter
Aug 30
New
Sep 5
First Quarter
Sep 14
Full

Hourly Weather History & Observations

Time (EDT) Temp. Heat Index Dew Point Humidity Pressure Visibility Wind Dir Wind Speed Gust Speed Precip Events Conditions
12:35 AM 77.0 °F - 73.4 °F 89% 30.12 in 10.0 mi Calm Calm - N/A   Partly Cloudy
12:55 AM 77.0 °F - 73.4 °F 89% 30.12 in 10.0 mi Calm Calm - N/A   Mostly Cloudy
1:15 AM 77.0 °F - 73.4 °F 89% 30.12 in 10.0 mi Calm Calm - N/A   Overcast
1:55 AM 77.0 °F - 73.4 °F 89% 30.12 in 10.0 mi Calm Calm - N/A   Scattered Clouds
2:15 AM 77.0 °F - 73.4 °F 89% 30.12 in 10.0 mi Calm Calm - N/A   Scattered Clouds
2:55 AM 75.2 °F - 73.4 °F 94% 30.10 in 10.0 mi Calm Calm - N/A   Mostly Cloudy
3:15 AM 75.2 °F - 73.4 °F 94% 30.10 in 10.0 mi Calm Calm - N/A   Overcast
3:35 AM 75.2 °F - 73.4 °F 94% 30.09 in 10.0 mi Calm Calm - N/A   Overcast
3:55 AM 75.2 °F - 73.4 °F 94% 30.09 in 10.0 mi Calm Calm - N/A   Mostly Cloudy
4:15 AM 75.2 °F - 73.4 °F 94% 30.08 in 10.0 mi SSW 4.6 mph - N/A   Partly Cloudy
4:35 AM 75.2 °F - 73.4 °F 94% 30.08 in 10.0 mi WSW 5.8 mph - N/A   Clear
4:55 AM 75.2 °F - 73.4 °F 94% 30.09 in 10.0 mi WSW 3.5 mph - N/A   Clear
5:15 AM 75.2 °F - 73.4 °F 94% 30.09 in 10.0 mi Calm Calm - N/A   Clear
5:35 AM 75.2 °F - 73.4 °F 94% 30.09 in 10.0 mi Calm Calm - N/A   Partly Cloudy
6:15 AM 75.2 °F - 73.4 °F 94% 30.09 in 10.0 mi Calm Calm - N/A   Clear
6:35 AM 75.2 °F - 73.4 °F 94% 30.09 in 10.0 mi Calm Calm - N/A   Partly Cloudy
7:15 AM 75.2 °F - 73.4 °F 94% 30.10 in 9.0 mi Calm Calm - N/A   Clear
7:55 AM 75.2 °F - 73.4 °F 94% 30.11 in 10.0 mi Calm Calm - N/A   Clear
8:15 AM 77.0 °F - 75.2 °F 94% 30.11 in 10.0 mi Calm Calm - N/A   Clear
8:35 AM 78.8 °F - 75.2 °F 89% 30.12 in 10.0 mi Calm Calm - N/A   Clear
8:55 AM 80.6 °F 86.2 °F 75.2 °F 84% 30.12 in 10.0 mi SSW 5.8 mph - N/A   Partly Cloudy
9:15 AM 80.6 °F 86.2 °F 75.2 °F 84% 30.12 in 10.0 mi SW 4.6 mph - N/A   Clear
9:35 AM 82.4 °F 88.2 °F 73.4 °F 74% 30.12 in 10.0 mi Variable 3.5 mph - N/A   Clear
10:35 AM 86.0 °F 93.4 °F 73.4 °F 66% 30.12 in 10.0 mi North - - N/A   Clear
10:55 AM 86.0 °F 93.4 °F 73.4 °F 66% 30.12 in 10.0 mi West 8.1 mph - N/A   Clear
11:15 AM 86.0 °F 93.4 °F 73.4 °F 66% 30.12 in 10.0 mi West 5.8 mph - N/A   Scattered Clouds
11:35 AM 87.8 °F 93.8 °F 71.6 °F 58% 30.12 in 10.0 mi WSW 5.8 mph 12.7 mph N/A   Partly Cloudy
11:55 AM 87.8 °F 93.8 °F 71.6 °F 58% 30.12 in 10.0 mi SW 5.8 mph - N/A   Partly Cloudy
12:15 PM 89.6 °F 98.2 °F 73.4 °F 59% 30.12 in 10.0 mi Variable 3.5 mph - N/A   Clear
12:35 PM 89.6 °F 96.2 °F 71.6 °F 55% 30.11 in 10.0 mi West 9.2 mph - N/A   Scattered Clouds
12:55 PM 91.4 °F 98.4 °F 71.6 °F 52% 30.11 in 10.0 mi SW 6.9 mph - N/A   Partly Cloudy
1:15 PM 91.4 °F 98.4 °F 71.6 °F 52% 30.10 in 10.0 mi West 6.9 mph 15.0 mph N/A   Clear
1:35 PM 93.2 °F 98.8 °F 69.8 °F 46% 30.09 in 10.0 mi SW 9.2 mph - N/A   Partly Cloudy
2:15 PM 91.4 °F 98.4 °F 71.6 °F 52% 30.09 in 10.0 mi West 5.8 mph - N/A Thunderstorm Mostly Cloudy
2:55 PM 93.2 °F 98.8 °F 69.8 °F 46% 30.07 in 10.0 mi WSW 9.2 mph - N/A   Partly Cloudy
3:15 PM 93.2 °F 98.8 °F 69.8 °F 46% 30.06 in 10.0 mi SSW 4.6 mph - N/A Thunderstorm Partly Cloudy
3:55 PM 91.4 °F 96.8 °F 69.8 °F 49% 30.05 in 10.0 mi South 5.8 mph - N/A   Mostly Cloudy
4:15 PM 93.2 °F 98.8 °F 69.8 °F 46% 30.04 in 10.0 mi SSW 4.6 mph - N/A   Scattered Clouds
5:15 PM 91.4 °F 100.1 °F 73.4 °F 55% 30.02 in 10.0 mi South 8.1 mph - N/A   Clear
5:35 PM 91.4 °F 98.4 °F 71.6 °F 52% 30.03 in 10.0 mi SSW 8.1 mph - N/A   Clear
5:55 PM 91.4 °F 98.4 °F 71.6 °F 52% 30.03 in 10.0 mi SSW 8.1 mph - N/A   Partly Cloudy
6:15 PM 91.4 °F 98.4 °F 71.6 °F 52% 30.02 in 10.0 mi SW 9.2 mph - N/A Thunderstorm Partly Cloudy
6:35 PM 91.4 °F 100.1 °F 73.4 °F 55% 30.02 in 10.0 mi SSW 6.9 mph 12.7 mph N/A   Partly Cloudy
6:55 PM 91.4 °F 98.4 °F 71.6 °F 52% 30.03 in 10.0 mi South 11.5 mph - N/A Thunderstorm Clear
7:15 PM 89.6 °F 96.2 °F 71.6 °F 55% 30.04 in 10.0 mi SSW 9.2 mph - N/A   Clear
7:35 PM 87.8 °F 93.8 °F 71.6 °F 58% 30.04 in 10.0 mi SSW 11.5 mph - N/A Thunderstorm Clear
7:55 PM 86.0 °F 90.4 °F 69.8 °F 58% 30.05 in 10.0 mi SSW 6.9 mph 12.7 mph N/A Thunderstorm Clear
8:15 PM 84.2 °F 89.6 °F 71.6 °F 66% 30.05 in 10.0 mi SSW 5.8 mph - N/A Thunderstorm Clear
8:35 PM 84.2 °F 88.4 °F 69.8 °F 62% 30.05 in 10.0 mi SSW 6.9 mph - N/A   Clear
8:55 PM 82.4 °F 87.2 °F 71.6 °F 70% 30.06 in 10.0 mi SSW 4.6 mph - N/A   Clear
9:35 PM 80.6 °F 84.6 °F 71.6 °F 74% 30.07 in 10.0 mi South 6.9 mph - N/A   Partly Cloudy
10:15 PM 80.6 °F 84.6 °F 71.6 °F 74% 30.07 in 10.0 mi South 4.6 mph - N/A   Scattered Clouds
10:35 PM 80.6 °F 84.6 °F 71.6 °F 74% 30.07 in 10.0 mi Calm Calm - N/A   Scattered Clouds
10:55 PM 78.8 °F - 71.6 °F 78% 30.07 in 10.0 mi South 3.5 mph - N/A   Mostly Cloudy
11:15 PM 78.8 °F - 71.6 °F 78% 30.07 in 10.0 mi SSW 5.8 mph - N/A   Mostly Cloudy
11:35 PM 78.8 °F - 71.6 °F 78% 30.08 in 10.0 mi SSW 3.5 mph - N/A   Mostly Cloudy
11:55 PM 78.8 °F - 71.6 °F 78% 30.08 in 10.0 mi SSW 3.5 mph - N/A   Scattered Clouds